Regional Weather Roundup
Issued by NWS Charleston, SC

Current Version | Previous Version | Graphics & Text | Print | Product List | Glossary On
Versions: 1 2 3 4 5 6 7 8 9 10 11 12 13 14 15 16 17 18 19 20 21 22 23 24 25 26 27 28 29 30 31 32 33 34 35 36 37 38 39 40 41 42 43 44 45 46 47 48 49 50
513
ASUS42 KCHS 202327
RWRCHS

Regional Weather Roundup
National Weather Service Charleston SC
600 PM EST SAT JAN 20 2018

NOTE: "fair" indicates few or no clouds below 12,000 feet with no
significant weather and/or obstructions to visibility.

Not all stations are quality controlled. Use data with caution,
especially dewpoint observations.

SCZ027-030-031-034>040-042>050-210000-
...Southeast South Carolina...

CITY           SKY/WX    TMP DP  RH WIND       PRES   REMARKS
N Charleston   FAIR      51  29  42 S10       30.22R
Waterfront Prk NOT AVBL
Mount Pleasant FAIR      50  28  43 SW8       30.23R
Johns Island   FAIR      50  28  43 SW6       30.23S
Pinopolis        N/A     59  36  41 CALM      30.10S
Moncks Corner  FAIR      52  32  46 CALM      30.21R
Summerville    FAIR      52  34  50 CALM      30.22S
Beaufort MCAS  FAIR      53  32  44 S7        30.23R
Beaufort Arpt  FAIR      50  32  50 S8        30.24R HAZE
Hilton Head Is CLEAR     52  27  37 S8        30.25R
Walterboro     FAIR      54  36  50 CALM      30.22R
Allendale      FAIR      55  39  54 CALM      30.21R

...Southern Midlands and Pee Dee...

CITY           SKY/WX    TMP DP  RH WIND       PRES   REMARKS
Georgetown     FAIR      46  32  57 S7        30.22R
Kingstree      FAIR      50  32  50 CALM      30.20R
Orangeburg     FAIR      56  35  45 SW5       30.21R
Barnwell         N/A     55  43  62 CALM      30.22R
Aiken          FAIR      50  36  57 CALM      30.24R
Manning        FAIR     N/A N/A N/A MISG      30.21R
Columbia       FAIR      56  30  37 CALM      30.20R
Sumter         FAIR      55  29  37 W3        30.17R
Florence       FAIR      57  31  37 SW5       30.20R
Myrtle Beach   FAIR      50  34  54 S8        30.20R
N Myrtle Beach FAIR      47  38  71 SW14      30.19R

$$

GAZ063-065-086>088-099>101-113>116-118-119-134>141-150-210000-
...Southeast Georgia...

CITY           SKY/WX    TMP DP  RH WIND       PRES   REMARKS
Savannah Arpt  FAIR      57  30  35 SW6       30.24R
Hunter AAF     FAIR      53  30  41 S5        30.21R
Fort Stewart   FAIR      55  31  41 CALM      30.21S
Statesboro     FAIR      53  37  55 CALM      30.22S
Sylvania       FAIR      56  42  58 CALM      30.22S
Claxton        FAIR      53  39  59 CALM      30.23S

...CSRA, Central and far Southeast Georgia...

CITY           SKY/WX    TMP DP  RH WIND       PRES   REMARKS
Thomson        FAIR      51  38  60 CALM      30.26R
Augusta-Bush   FAIR      57  38  48 CALM      30.20R
Augusta-Daniel FAIR      60  38  43 CALM      30.21R
Swainsboro     FAIR      54  43  66 CALM      30.22S
Vidalia        FAIR      55  41  58 CALM      30.23S
Eastman        FAIR      57  32  38 CALM      30.26R
Hazlehurst     FAIR      55  33  43 CALM      30.23S
Alma           FAIR      54  30  40 CALM      30.24S
Waycross       FAIR      52  25  34 CALM      30.26R
Jesup          FAIR      52  30  43 CALM      30.26R
Baxley         FAIR      52  34  50 CALM      30.24S
Brunswick      FAIR      52  32  46 S5        30.27R
Saint Simons   FAIR      51  30  44 S7        30.26R

$$

SCZ027-028-034-036>038-045-046-048>050-GAZ119-141-210000-
...Lake and Supplemental Coastal Observations...

STATION/POSITION TIME  TEMP    WIND        PRES    WAVE   SWELL
                       AIR SEA DIR/SP/G            HT/PER HT/PER/DIR
                 (UTC) (F)     (DEG/KT/KT) (MB)    (FT/S) (FT/S/D)
Winyah Bay       2245   51     220/  6     1023.0R
Lake Murray      2250   51     210/  5/  5 1021.7R
ACE Basin NERRS  2245   51        CALM     1023.0S
Fort Pulaski     2300   49 46  210/  4/  6 1024.4
Sapelo Island    2300   51     170/  7     1024.0

$$

ANZ835-935-AMZ111-154-330-350-352-354-370-450-454-472-210000-
...C-MAN and Buoy Observations...

STATION/POSITION TIME  TEMP    WIND        PRES    WAVE   SWELL
                       AIR SEA DIR/SP/G            HT/PER HT/PER/DIR
                 (UTC) (F)     (DEG/KT/KT) (MB)    (FT/S) (FT/S/D)
Buoy 41004       2310   60 69  230/ 16/ 21 1023.4
Buoy 41008       2250   51 49  160/  6/  8 1024.4R   1/10   2/ 60/10
Folly Beach CMAN 2300   50     230/  8/ 10 1024.2R
Capers Nearshore 2308   47 48  230/ 12/ 16 1023.3R
Fripp Nearshore  2308   46 46  210/ 12/ 16 1023.3R


STATION/POSITION TIME  TEMP    WIND        PRES    WAVE   SWELL
                       AIR SEA DIR/SP/G            HT/PER HT/PER/DIR
                 (UTC) (F)     (DEG/KT/KT) (MB)    (FT/S) (FT/S/D)
5E St. Marys GA  2230      49                N/A     1/11
Frying Pan Buoy  2310   58 58  230/ 16/ 17 1022.5
Buoy 41025       2310   62 69  240/ 21/ 27 1021.0
Cape Lookout NC  2300          230/ 10/ 15 1021.6S
Buoy 41002       2250   67 70  220/ 12/ 14 1024.0R   4/ 6   3/290/ 6
Buoy 41010       NOT AVBL
St Augustine FL  2300   53 51     CALM     1025.3F


$$




USA.gov is the U.S. government's official web portal to all federal, state and local government web resources and services.